Date String (YYYY-MM-DD hh:mm:ss) UTC,Instrument flags,Ambient pressure (hPa),Sample flow (lpm),Bypass flow (lpm),Sample temperature (°C),Ambient temperature (°C),ASC tube jacket temperature (°C),LED temperature (°C),Box temperature (°C),Sample RH (%),Span deviation,Mass concentration (μg/m³),Mass concentration (μg/m³),Mass concentration (μg/m³)
DateTimeUTC,F1_M11,P_M11,Q1_M11,Q2_M11,T1_M11,T2_M11,T3_M11,T4_M11,T5_M11,U1_M11,ZSPAN_M11,X0_M11,X2_M11,X1_M11
2022-11-01 06:00:00,,0824.0,5.01,0.00,29.1,27.4,00.0,38.1,30.8,09.0,0000.0,0003.66,0002.17,0001.88
2022-11-01 06:01:00,,0824.0,4.99,0.00,29.1,27.3,00.0,38.1,30.8,09.0,0000.0,0003.49,0002.15,0001.87
2022-11-01 06:02:00,,0823.9,5.00,0.00,29.1,27.3,00.0,38.1,30.7,09.0,0000.0,0002.92,0002.17,0001.88
2022-11-01 06:03:00,,0824.0,5.01,0.00,29.1,27.3,00.0,38.1,30.8,08.9,0000.0,0003.02,0002.20,0001.89
2022-11-01 06:04:00,,0823.9,4.99,0.00,29.1,27.3,00.0,38.0,30.7,08.9,0000.0,0003.01,0002.20,0001.89
2022-11-01 06:05:00,,0823.9,5.02,0.00,29.1,27.3,00.0,38.0,30.7,08.7,0000.0,0003.22,0002.24,0001.89
2022-11-01 06:06:00,,0824.0,5.00,0.00,29.1,27.3,00.0,38.0,30.7,08.7,0000.0,0003.48,0002.32,0001.89
2022-11-01 06:07:00,,0824.0,4.99,0.00,29.1,27.3,00.0,38.0,30.7,09.1,0000.0,0003.49,0002.33,0001.90
2022-11-01 06:08:00,,0824.0,5.01,0.00,29.1,27.3,00.0,38.0,30.7,08.7,0000.0,0003.46,0002.34,0001.91
2022-11-01 06:09:00,,0824.0,4.99,0.00,29.0,27.2,00.0,38.0,30.7,08.6,0000.0,0003.48,0002.35,0001.94
2022-11-01 06:10:00,,0824.0,5.00,0.00,29.0,27.2,00.0,38.0,30.8,08.7,0000.0,0003.49,0002.38,0001.96
2022-11-01 06:11:00,,0824.0,5.01,0.00,29.0,27.2,00.0,38.0,30.8,08.9,0000.0,0003.49,0002.40,0001.96
2022-11-01 06:12:00,,0824.0,5.00,0.00,29.0,27.2,00.0,38.0,30.7,09.0,0000.0,0003.48,0002.39,0001.97
2022-11-01 06:13:00,,0824.0,4.99,0.00,29.0,27.2,00.0,38.0,30.6,08.8,0000.0,0003.73,0002.39,0001.98
2022-11-01 06:14:00,,0824.0,5.00,0.00,29.0,27.2,00.0,38.0,30.7,08.4,0000.0,0003.85,0002.39,0001.98
2022-11-01 06:15:00,,0823.9,5.00,0.00,29.0,27.2,00.0,38.0,30.7,08.6,0000.0,0003.86,0002.39,0001.98
2022-11-01 06:16:00,,0824.0,5.02,0.00,29.0,27.2,00.0,37.9,30.6,08.3,0000.0,0003.83,0002.42,0002.00
2022-11-01 06:17:00,,0824.0,4.99,0.00,29.0,27.2,00.0,37.9,30.6,08.3,0000.0,0004.51,0002.40,0002.02
2022-11-01 06:18:00,,0824.0,5.00,0.00,29.0,27.2,00.0,37.9,30.7,08.5,0000.0,0004.40,0002.39,0002.03
2022-11-01 06:19:00,,0824.0,5.01,0.00,29.0,27.2,00.0,37.9,30.7,08.0,0000.0,0004.78,0002.50,0002.05
2022-11-01 06:20:00,,0824.0,4.99,0.00,29.0,27.2,00.0,37.9,30.7,08.3,0000.0,0004.82,0002.52,0002.06
2022-11-01 06:21:00,,0824.0,5.00,0.00,29.0,27.2,00.0,37.9,30.7,08.9,0000.0,0005.00,0002.54,0002.06
2022-11-01 06:22:00,,0824.0,5.00,0.00,29.0,27.2,00.0,37.9,30.7,08.6,0000.0,0005.21,0002.63,0002.07
2022-11-01 06:23:00,,0823.9,5.00,0.00,29.0,27.2,00.0,37.9,30.7,08.2,0000.0,0005.42,0002.73,0002.09
2022-11-01 06:24:00,,0824.0,4.99,0.00,28.9,27.2,00.0,37.9,30.6,07.9,0000.0,0005.63,0002.83,0002.12
2022-11-01 06:25:00,,0824.0,5.02,0.00,28.9,27.2,00.0,37.9,30.6,08.0,0000.0,0005.75,0002.83,0002.13
2022-11-01 06:26:00,,0824.0,4.99,0.00,28.9,27.2,00.0,37.9,30.7,08.3,0000.0,0006.90,0002.85,0002.15
2022-11-01 06:27:00,,0824.0,4.99,0.00,28.9,27.2,00.0,37.9,30.7,08.3,0000.0,0007.44,0002.83,0002.15
2022-11-01 06:28:00,,0823.9,5.01,0.00,28.9,27.2,00.0,37.9,30.6,08.4,0000.0,0006.94,0002.82,0002.15
2022-11-01 06:29:00,,0824.0,5.00,0.00,28.9,27.2,00.0,37.9,30.6,08.9,0000.0,0007.48,0002.79,0002.13
2022-11-01 06:30:00,,0824.0,5.00,0.00,28.9,27.2,00.0,37.9,30.6,09.2,0000.0,0007.32,0002.68,0002.10
2022-11-01 06:31:00,,0824.0,5.00,0.00,28.9,27.1,00.0,37.8,30.6,09.2,0000.0,0007.18,0002.62,0002.07
2022-11-01 06:32:00,,0823.9,5.01,0.00,28.9,27.1,00.0,37.8,30.5,09.1,0000.0,0006.96,0002.57,0002.05
2022-11-01 06:33:00,,0824.0,4.98,0.00,28.9,27.1,00.0,37.8,30.6,09.0,0000.0,0006.93,0002.49,0002.03
2022-11-01 06:34:00,,0824.0,5.01,0.00,28.9,27.1,00.0,37.8,30.6,09.1,0000.0,0006.89,0002.41,0002.01
2022-11-01 06:35:00,,0824.0,5.02,0.00,28.9,27.1,00.0,37.8,30.5,09.0,0000.0,0006.59,0002.33,0001.99
2022-11-01 06:36:00,,0824.0,4.98,0.00,28.8,27.1,00.0,37.8,30.5,08.9,0000.0,0006.15,0002.34,0001.99
2022-11-01 06:37:00,,0824.0,5.01,0.00,28.8,27.0,00.0,37.8,30.5,08.8,0000.0,0005.00,0002.34,0001.98
2022-11-01 06:38:00,,0824.0,5.00,0.00,28.8,27.0,00.0,37.8,30.5,08.8,0000.0,0004.25,0002.33,0001.98
2022-11-01 06:39:00,,0824.0,4.99,0.00,28.8,27.0,00.0,37.8,30.5,08.8,0000.0,0004.08,0002.33,0001.98
2022-11-01 06:40:00,,0824.0,5.00,0.00,28.8,27.0,00.0,37.8,30.6,08.9,0000.0,0003.51,0002.38,0001.99
2022-11-01 06:41:00,,0824.0,5.00,0.00,28.8,27.0,00.0,37.8,30.5,09.2,0000.0,0003.43,0002.40,0002.01
2022-11-01 06:42:00,,0823.9,5.00,0.00,28.8,27.0,00.0,37.7,30.5,09.2,0000.0,0003.49,0002.42,0002.02
2022-11-01 06:43:00,,0824.0,5.00,0.00,28.8,27.0,00.0,37.7,30.5,09.1,0000.0,0003.57,0002.44,0002.03
2022-11-01 06:44:00,,0823.9,5.00,0.00,28.8,27.0,00.0,37.7,30.5,09.1,0000.0,0003.55,0002.46,0002.04
2022-11-01 06:45:00,,0824.0,5.00,0.00,28.8,27.0,00.0,37.7,30.5,09.0,0000.0,0003.70,0002.50,0002.06
2022-11-01 06:46:00,,0824.0,5.00,0.00,28.8,27.0,00.0,37.7,30.4,08.8,0000.0,0004.05,0002.54,0002.05
2022-11-01 06:47:00,,0824.0,5.00,0.00,28.7,27.0,00.0,37.7,30.4,08.8,0000.0,0005.73,0002.56,0002.04
2022-11-01 06:48:00,,0824.0,4.98,0.00,28.7,27.0,00.0,37.7,30.5,08.8,0000.0,0006.06,0002.55,0002.03
2022-11-01 06:49:00,,0824.0,5.01,0.00,28.7,27.0,00.0,37.7,30.5,09.0,0000.0,0006.18,0002.58,0002.03
2022-11-01 06:50:00,,0824.0,4.99,0.00,28.7,26.9,00.0,37.7,30.4,08.9,0000.0,0006.10,0002.55,0002.02
2022-11-01 06:51:00,,0824.0,5.02,0.00,28.7,26.9,00.0,37.7,30.3,08.9,0000.0,0005.99,0002.50,0002.01
2022-11-01 06:52:00,,0824.0,4.99,0.00,28.7,26.9,00.0,37.6,30.4,09.1,0000.0,0006.60,0002.49,0002.01
2022-11-01 06:53:00,,0824.0,4.99,0.00,28.7,26.9,00.0,37.6,30.3,09.0,0000.0,0006.96,0002.49,0002.00
2022-11-01 06:54:00,,0824.0,5.02,0.00,28.7,26.8,00.0,37.6,30.3,08.9,0000.0,0006.98,0002.49,0002.00
2022-11-01 06:55:00,,0824.0,5.00,0.00,28.7,26.8,00.0,37.6,30.3,08.7,0000.0,0007.04,0002.53,0002.01
2022-11-01 06:56:00,,0824.0,5.00,0.00,28.7,26.8,00.0,37.6,30.4,08.6,0000.0,0007.07,0002.61,0002.02
2022-11-01 06:57:00,,0824.0,4.99,0.00,28.6,26.8,00.0,37.6,30.3,08.6,0000.0,0006.76,0002.59,0002.03
2022-11-01 06:58:00,,0824.0,5.00,0.00,28.6,26.8,00.0,37.6,30.3,08.6,0000.0,0005.04,0002.54,0002.04
2022-11-01 06:59:00,,0824.0,4.99,0.00,28.6,26.8,00.0,37.6,30.3,08.7,0000.0,0004.94,0002.56,0002.04
